Current Version              Previous Version:    01  02  03  04  05  06  07  08  09  10  11  12  13  14  15  16  17  18  19  20  21  22  23  24  25  26  27  28  29  30  
   31  32  33  34  35  36  37  38  39  40  41  42  43  44  45  46  47  48  49  50  51  52  53  54  55  56  57  58  59  60  

[Printable]
612
ASUS44 KFWD 211201
RWRTX
NORTH TEXAS HOURLY WEATHER ROUNDUP
NATIONAL WEATHER SERVICE FORT WORTH TX
600 AM CST SUN DEC 21 2014

NOTE: "FAIR" INDICATES FEW OR NO CLOUDS BELOW 12,000 FEET WITH NO
SIGNIFICANT WEATHER AND/OR OBSTRUCTIONS TO VISIBILITY.

TXZ118-119-211300-
DALLAS/FORT WORTH METROPLEX

CITY           SKY/WX    TMP DP  RH WIND       PRES   REMARKS
DFW AIRPORT    CLOUDY    47  43  86 SE9       30.10S
6HR MIN TEMP:  47; 6HR MAX TEMP:  47;

DALLAS LOVE    CLOUDY    48  43  82 SE12      30.11F
6HR MIN TEMP:  48; 6HR MAX TEMP:  49;

FTW MEACHAM    CLOUDY    48  44  86 SE9       30.09S FOG
6HR MIN TEMP:  48; 6HR MAX TEMP:  48;

DAL-EXECUTIVE  CLOUDY    48  44  86 S5        30.11S
6HR MIN TEMP:  48; 6HR MAX TEMP:  49;

FTW-ALLIANCE   CLOUDY    47  44  90 S7        30.08F
6HR MIN TEMP:  46; 6HR MAX TEMP:  47;

ARLINGTON      CLOUDY    48  42  80 SE6       30.10F
6HR MIN TEMP:  48; 6HR MAX TEMP:  49;

LANCASTER      CLOUDY    46  43  88 SE3       30.13S
6HR MIN TEMP:  46; 6HR MAX TEMP:  47;

$$

TXZ091>094-102>105-117-120-121-131>134-211300-
NORTH CENTRAL TEXAS

CITY           SKY/WX    TMP DP  RH WIND       PRES   REMARKS
SHRMAN/DENISON CLOUDY    47  46  96 SE7       30.10S FOG
6HR MIN TEMP:  46; 6HR MAX TEMP:  47;

BRIDGEPORT     CLOUDY    47  47 100 SE6       30.09F
6HR MIN TEMP:  44; 6HR MAX TEMP:  47;

DENTON         CLOUDY    47  44  90 S8        30.09F
6HR MIN TEMP:  46; 6HR MAX TEMP:  47;

MCKINNEY       CLOUDY    47  44  90 SE7       30.11F
6HR MIN TEMP:  46; 6HR MAX TEMP:  47;

ROCKWALL       CLOUDY    47  45  93 SE3       30.12S
6HR MIN TEMP:  46; 6HR MAX TEMP:  47;

TERRELL        CLOUDY    48  44  86 SE5       30.13S
6HR MIN TEMP:  48; 6HR MAX TEMP:  50;

WAXAHACHIE     CLOUDY    46  46  99 SE3       30.12S
6HR MIN TEMP:  46; 6HR MAX TEMP:  47;

$$

TXZ083>090-098>101-113>116-127>130-139>142-154-155-211300-
WESTERN NORTH TEXAS

CITY           SKY/WX    TMP DP  RH WIND       PRES   REMARKS
WICHITA FALLS  CLOUDY    44  41  89 SE13      30.03F WCI  38
6HR MIN TEMP:  41; 6HR MAX TEMP:  45;

WF-KICKAPOO    CLOUDY    45  42  89 SE10      30.05F WCI  39
6HR MIN TEMP:  42; 6HR MAX TEMP:  45;

VERNON         CLOUDY    44  39  82 SE8       30.01F WCI  39
6HR MIN TEMP:  32; 6HR MAX TEMP:  52;

ABILENE        CLOUDY    47  43  86 S10       30.01S
6HR MIN TEMP:  42; 6HR MAX TEMP:  47;

MINERAL WELLS  CLOUDY    47  44  90 SE8       30.06F FOG
6HR MIN TEMP:  46; 6HR MAX TEMP:  47;

STEPHENVILLE   CLOUDY    47  42  84 S6        30.09F
6HR MIN TEMP:  46; 6HR MAX TEMP:  47;

COMANCHE       CLOUDY    46  44  91 S9        30.07S
6HR MIN TEMP:  46; 6HR MAX TEMP:  47;

$$

TXZ143>147-156>162-174-175-211300-
CENTRAL TEXAS

CITY           SKY/WX    TMP DP  RH WIND       PRES   REMARKS
WACO           CLOUDY    47  44  90 SE5       30.12R
6HR MIN TEMP:  47; 6HR MAX TEMP:  48;

WACO-MCGREGOR  CLOUDY    46  41  81 SE6       30.12S
6HR MIN TEMP:  46; 6HR MAX TEMP:  48;

CORSICANA      CLOUDY    46  44  93 E5        30.14R FOG
6HR MIN TEMP:  46; 6HR MAX TEMP:  49;

MEXIA          CLOUDY    46  45  96 CALM      30.11S
6HR MIN TEMP:  46; 6HR MAX TEMP:  47;

HEARNE         CLOUDY    47  46  97 CALM      30.14R FOG
6HR MIN TEMP:  47; 6HR MAX TEMP:  48;

TEMPLE         CLOUDY    46  43  87 E5        30.10S
6HR MIN TEMP:  46; 6HR MAX TEMP:  48;

KILLEEN        CLOUDY    47  45  90 S3        30.09F
6HR MIN TEMP:  47; 6HR MAX TEMP:  47;

KILLEEN-SKYLRK CLOUDY    48  43  81 S5        30.09S
6HR MIN TEMP:  48; 6HR MAX TEMP:  48;

HAMILTON       CLOUDY    47  44  88 S7        30.09S
6HR MIN TEMP:  47; 6HR MAX TEMP:  47;

$$

TXZ095>097-106>112-122>126-135>138-148>153-164>167-211300-
EAST TEXAS

CITY           SKY/WX    TMP DP  RH WIND       PRES   REMARKS
PARIS          CLOUDY    45  39  81 SE6       30.15R
6HR MIN TEMP:  45; 6HR MAX TEMP:  46;

SULPHUR SPRNGS CLOUDY    46  43  90 SE7       30.15S
6HR MIN TEMP:  46; 6HR MAX TEMP:  48;

MINEOLA        CLOUDY    45  45 100 SE3       30.15S FOG
TYLER          CLOUDY    44  41  89 SE5       30.12F
6HR MIN TEMP:  42; 6HR MAX TEMP:  45;

LONGVIEW       CLOUDY    41  39  93 NE3       30.14R
6HR MIN TEMP:  36; 6HR MAX TEMP:  41;

MARSHALL       CLOUDY    40  38  93 CALM      30.16F
6HR MIN TEMP:  36; 6HR MAX TEMP:  41;

PALESTINE      CLOUDY    44  44 100 CALM      30.14F FOG
JACKSONVILLE   CLOUDY    42  42  99 CALM      30.14S FOG
HENDERSON      FOG       40  40 100 CALM      30.15S VSB 1/4
6HR MIN TEMP:  35; 6HR MAX TEMP:  40;

NACOGDOCHES    CLOUDY    37  36  93 N3        30.14S
6HR MIN TEMP:  36; 6HR MAX TEMP:  37;

LUFKIN         CLOUDY    45  41  86 CALM      30.13S FOG
6HR MIN TEMP:  40; 6HR MAX TEMP:  45;

$$

SUPPLEMENTAL OBSERVATIONS (CENTRAL)

CITY           SKY/WX    TMP DP  RH WIND       PRES   REMARKS
$$

SUPPLEMENTAL OBSERVATIONS (WEST)

CITY           SKY/WX    TMP DP  RH WIND       PRES   REMARKS
$$

SUPPLEMENTAL OBSERVATIONS (EAST)

CITY           SKY/WX    TMP DP  RH WIND       PRES   REMARKS
$$

SUPPLEMENTAL OBSERVATIONS ARE A COLLECTION OF AUTOMATED INSTRUMENTS
THAT ARE MAINTAINED BY A VARIETY OF FEDERAL AND STATE AGENCIES.
CERTAIN ELEMENTS...SUCH AS HUMIDITY VALUES AND SUSTAINED WIND
SPEEDS...MAY BE APPROXIMATED.